QPF
0.02 0.04 0.10 0.12 0.05 0.02 0.02 0.02 0.02 0.03 0.03 0.02 0.01 0.01 0.02 0.02 0.04 0.07 0.08 0.06 0.06 0.05 0.04 0.04 0.04 0.07 0.08 0.05 0.04 0.03 0.04 0.05 0.06 0.08 0.06 0.06 0.06 0.06 0.05 0.06 0.07 0.08 0.09
0.01 0.04 0.12 0.11 0.05 0.03 0.02 0.02 0.01 0.01 0.01 0.01 0.01 0.01 0.01 0.01 0.02 0.02 0.03 0.02 0.02 0.02 0.01 0.02 0.03 0.05 0.06 0.06 0.05 0.04 0.04 0.04 0.05 0.08 0.11 0.11 0.09 0.08 0.09 0.11 0.10 0.12 0.15
0.01 0.02 0.06 0.02 0.01 0.02 0.02 0.02 0.01 0.01 0.01 0.01 0.01 0.01 0.01 0.01 0.01 0.01 0.01 0.01 0.02 0.01 0.01 0.02 0.02 0.03 0.05 0.05 0.05 0.05 0.05 0.05 0.04 0.05 0.08 0.10 0.08 0.08 0.10 0.12 0.12 0.13 0.14
0.01 0.01 0.00 0.00 0.01 0.01 0.01 0.01 0.01 0.00 0.00 0.00 0.01 0.01 0.01 0.01 0.01 0.01 0.01 0.01 0.01 0.01 0.01 0.02 0.02 0.02 0.04 0.04 0.03 0.03 0.04 0.06 0.05 0.05 0.05 0.07 0.10 0.11 0.09 0.08 0.10 0.12 0.11
0.01 0.01 0.01 0.01 0.02 0.01 0.01 0.01 0.01 0.00 0.00 0.00 0.00 0.01 0.01 0.01 0.02 0.01 0.01 0.01 0.01 0.01 0.01 0.01 0.02 0.03 0.03 0.03 0.03 0.03 0.03 0.06 0.06 0.06 0.08 0.10 0.09 0.08 0.10 0.08 0.09 0.10 0.10
0.02 0.02 0.01 0.01 0.03 0.01 0.01 0.01 0.01 0.01 0.01 0.00 0.00 0.01 0.01 0.01 0.01 0.01 0.01 0.01 0.01 0.01 0.01 0.02 0.02 0.03 0.03 0.03 0.03 0.03 0.04 0.06 0.06 0.06 0.06 0.10 0.11 0.06 0.07 0.07 0.08 0.08 0.08
0.03 0.02 0.02 0.02 0.03 0.03 0.02 0.01 0.01 0.01 0.00 0.00 0.00 0.00 0.01 0.01 0.01 0.02 0.02 0.02 0.01 0.01 0.01 0.01 0.02 0.02 0.02 0.02 0.02 0.03 0.03 0.04 0.04 0.04 0.04 0.05 0.06 0.06 0.06 0.07 0.06 0.05 0.05
0.04 0.03 0.03 0.03 0.04 0.03 0.02 0.01 0.01 0.00 0.00 0.00 0.01 0.01 0.01 0.01 0.01 0.02 0.01 0.02 0.02 0.02 0.03 0.03 0.02 0.02 0.02 0.02 0.02 0.02 0.03 0.03 0.03 0.03 0.05 0.05 0.06 0.07 0.05 0.07 0.07 0.05 0.05
0.06 0.07 0.06 0.04 0.03 0.03 0.04 0.05 0.01 0.01 0.01 0.01 0.01 0.02 0.02 0.02 0.02 0.02 0.02 0.02 0.02 0.01 0.02 0.02 0.02 0.03 0.04 0.04 0.03 0.03 0.03 0.03 0.04 0.04 0.05 0.05 0.07 0.07 0.06 0.07 0.07 0.06 0.05
0.05 0.06 0.06 0.05 0.03 0.02 0.03 0.02 0.02 0.01 0.01 0.01 0.03 0.03 0.03 0.02 0.03 0.03 0.02 0.02 0.02 0.02 0.02 0.03 0.02 0.03 0.03 0.04 0.04 0.04 0.04 0.04 0.03 0.04 0.04 0.04 0.06 0.07 0.07 0.06 0.07 0.08 0.07
0.04 0.03 0.03 0.03 0.03 0.02 0.03 0.04 0.04 0.03 0.03 0.03 0.04 0.04 0.03 0.03 0.03 0.03 0.02 0.02 0.03 0.03 0.03 0.04 0.04 0.03 0.02 0.03 0.04 0.04 0.03 0.03 0.03 0.03 0.03 0.03 0.05 0.06 0.05 0.06 0.07 0.07 0.08
0.04 0.03 0.02 0.02 0.02 0.01 0.03 0.05 0.08 0.09 0.08 0.07 0.06 0.06 0.05 0.04 0.03 0.02 0.02 0.02 0.02 0.02 0.02 0.03 0.02 0.02 0.02 0.02 0.03 0.03 0.04 0.04 0.04 0.04 0.05 0.05 0.05 0.05 0.06 0.06 0.06 0.08 0.08
0.04 0.03 0.02 0.02 0.02 0.02 0.02 0.03 0.07 0.10 0.11 0.09 0.08 0.06 0.04 0.03 0.02 0.01 0.01 0.01 0.01 0.01 0.02 0.02 0.02 0.02 0.02 0.02 0.02 0.03 0.04 0.05 0.05 0.04 0.04 0.05 0.06 0.06 0.08 0.08 0.07 0.08 0.10
0.02 0.02 0.02 0.01 0.01 0.01 0.01 0.03 0.07 0.09 0.10 0.09 0.06 0.04 0.03 0.02 0.02 0.01 0.01 0.01 0.02 0.02 0.03 0.02 0.02 0.03 0.02 0.02 0.02 0.02 0.02 0.02 0.03 0.03 0.04 0.04 0.05 0.06 0.06 0.06 0.06 0.06 0.07
0.02 0.02 0.01 0.01 0.02 0.02 0.02 0.04 0.08 0.12 0.13 0.10 0.07 0.04 0.03 0.03 0.03 0.02 0.02 0.02 0.02 0.03 0.03 0.03 0.03 0.02 0.02 0.02 0.02 0.01 0.01 0.02 0.03 0.04 0.04 0.04 0.05 0.04 0.04 0.04 0.03 0.05 0.06
0.03 0.02 0.02 0.02 0.03 0.03 0.04 0.04 0.06 0.08 0.09 0.10 0.10 0.07 0.05 0.04 0.03 0.03 0.02 0.02 0.02 0.02 0.03 0.03 0.03 0.03 0.02 0.02 0.02 0.02 0.02 0.02 0.03 0.03 0.03 0.04 0.05 0.05 0.05 0.04 0.03 0.04 0.04
0.03 0.03 0.02 0.02 0.03 0.04 0.03 0.03 0.03 0.04 0.05 0.06 0.07 0.06 0.06 0.05 0.04 0.04 0.03 0.03 0.03 0.03 0.03 0.04 0.05 0.04 0.04 0.03 0.02 0.03 0.03 0.03 0.03 0.03 0.04 0.04 0.03 0.03 0.02 0.04 0.04 0.03 0.03
0.06 0.04 0.03 0.02 0.03 0.02 0.02 0.03 0.03 0.03 0.03 0.03 0.03 0.04 0.03 0.05 0.06 0.04 0.03 0.04 0.04 0.04 0.03 0.04 0.05 0.05 0.05 0.05 0.04 0.04 0.03 0.03 0.02 0.01 0.02 0.02 0.01 0.01 0.02 0.04 0.04 0.04 0.04
0.05 0.03 0.03 0.02 0.02 0.02 0.02 0.02 0.01 0.02 0.02 0.03 0.03 0.05 0.03 0.03 0.03 0.03 0.03 0.03 0.04 0.04 0.04 0.05 0.06 0.06 0.06 0.07 0.06 0.04 0.02 0.02 0.02 0.02 0.01 0.01 0.01 0.01 0.03 0.03 0.03 0.04 0.04
0.05 0.05 0.05 0.02 0.02 0.02 0.02 0.02 0.02 0.02 0.02 0.03 0.01 0.01 0.02 0.02 0.03 0.03 0.04 0.05 0.05 0.05 0.05 0.05 0.05 0.06 0.06 0.07 0.06 0.05 0.03 0.02 0.02 0.02 0.01 0.01 0.01 0.02 0.02 0.01 0.01 0.01 0.02
0.10 0.06 0.05 0.03 0.03 0.02 0.02 0.01 0.01 0.01 0.01 0.01 0.00 0.01 0.01 0.02 0.03 0.03 0.04 0.06 0.05 0.05 0.05 0.05 0.05 0.05 0.05 0.06 0.06 0.04 0.02 0.02 0.02 0.02 0.01 0.01 0.02 0.01 0.01 0.00 0.01 0.01 0.02
0.13 0.09 0.05 0.03 0.02 0.01 0.01 0.01 0.01 0.01 0.01 0.01 0.01 0.01 0.01 0.02 0.02 0.02 0.02 0.04 0.05 0.05 0.05 0.06 0.08 0.06 0.04 0.04 0.06 0.07 0.05 0.04 0.03 0.02 0.02 0.02 0.03 0.02 0.01 0.01 0.01 0.01 0.02
0.08 0.08 0.06 0.03 0.02 0.01 0.01 0.01 0.00 0.00 0.01 0.01 0.02 0.02 0.01 0.01 0.01 0.01 0.01 0.02 0.03 0.05 0.05 0.06 0.07 0.07 0.05 0.04 0.05 0.07 0.07 0.06 0.06 0.05 0.05 0.05 0.06 0.05 0.05 0.04 0.03 0.02 0.01
0.08 0.07 0.05 0.03 0.02 0.01 0.01 0.00 0.00 0.00 0.01 0.01 0.01 0.01 0.01 0.01 0.01 0.00 0.00 0.01 0.02 0.03 0.04 0.03 0.03 0.03 0.04 0.04 0.04 0.06 0.06 0.05 0.05 0.06 0.06 0.06 0.06 0.06 0.06 0.07 0.05 0.03 0.02
0.09 0.07 0.05 0.04 0.02 0.01 0.01 0.01 0.01 0.01 0.01 0.01 0.01 0.01 0.01 0.01 0.01 0.00 0.00 0.01 0.01 0.02 0.03 0.03 0.02 0.02 0.03 0.05 0.05 0.05 0.05 0.06 0.06 0.05 0.05 0.05 0.04 0.03 0.03 0.05 0.06 0.06 0.05
0.09 0.07 0.06 0.04 0.03 0.02 0.01 0.01 0.02 0.02 0.01 0.01 0.02 0.02 0.02 0.02 0.02 0.01 0.01 0.01 0.01 0.01 0.01 0.02 0.01 0.01 0.01 0.03 0.04 0.05 0.05 0.06 0.06 0.06 0.05 0.03 0.02 0.01 0.02 0.02 0.03 0.03 0.03
MSLP
1013.90 1014.13 1014.35 1014.54 1014.68 1014.79 1014.88 1015.00 1015.17 1015.40 1015.70 1016.05 1016.42 1016.75 1017.01 1017.16 1017.20 1017.12 1016.95 1016.74 1016.53 1016.35 1016.26 1016.26 1016.38 1016.59 1016.88 1017.24 1017.65 1018.08 1018.53 1018.98 1019.42 1019.84 1020.21 1020.50 1020.71 1020.80 1020.75 1020.56 1020.25 1019.84 1019.35
1013.85 1014.23 1014.58 1014.84 1015.01 1015.10 1015.15 1015.21 1015.33 1015.54 1015.84 1016.22 1016.63 1017.02 1017.33 1017.51 1017.55 1017.46 1017.27 1017.02 1016.78 1016.60 1016.50 1016.51 1016.62 1016.83 1017.10 1017.40 1017.73 1018.08 1018.43 1018.79 1019.17 1019.56 1019.95 1020.31 1020.61 1020.83 1020.94 1020.92 1020.76 1020.50 1020.13
1013.65 1014.21 1014.71 1015.09 1015.32 1015.43 1015.46 1015.47 1015.54 1015.72 1016.01 1016.40 1016.84 1017.26 1017.61 1017.83 1017.89 1017.80 1017.60 1017.35 1017.10 1016.90 1016.79 1016.80 1016.89 1017.07 1017.28 1017.52 1017.76 1018.01 1018.26 1018.54 1018.86 1019.22 1019.63 1020.05 1020.46 1020.81 1021.08 1021.23 1021.26 1021.16 1020.94
1013.33 1014.07 1014.74 1015.25 1015.58 1015.73 1015.76 1015.75 1015.78 1015.92 1016.18 1016.56 1017.01 1017.46 1017.84 1018.10 1018.19 1018.13 1017.94 1017.70 1017.45 1017.25 1017.13 1017.12 1017.19 1017.32 1017.47 1017.64 1017.79 1017.94 1018.11 1018.31 1018.58 1018.92 1019.34 1019.81 1020.30 1020.78 1021.19 1021.51 1021.70 1021.77 1021.71
1012.98 1013.87 1014.69 1015.34 1015.77 1015.98 1016.03 1016.01 1016.01 1016.11 1016.34 1016.70 1017.15 1017.61 1018.02 1018.31 1018.44 1018.42 1018.28 1018.06 1017.82 1017.63 1017.50 1017.47 1017.50 1017.59 1017.69 1017.78 1017.87 1017.94 1018.04 1018.18 1018.40 1018.72 1019.14 1019.65 1020.20 1020.76 1021.28 1021.72 1022.06 1022.26 1022.35
1012.66 1013.67 1014.62 1015.38 1015.90 1016.18 1016.26 1016.24 1016.22 1016.29 1016.49 1016.82 1017.26 1017.73 1018.16 1018.49 1018.67 1018.70 1018.60 1018.42 1018.21 1018.02 1017.90 1017.84 1017.84 1017.89 1017.94 1017.98 1018.01 1018.03 1018.08 1018.18 1018.36 1018.66 1019.06 1019.57 1020.14 1020.75 1021.33 1021.85 1022.28 1022.60 1022.81
1012.45 1013.52 1014.55 1015.40 1015.99 1016.33 1016.45 1016.44 1016.41 1016.46 1016.63 1016.94 1017.36 1017.84 1018.29 1018.65 1018.87 1018.95 1018.91 1018.77 1018.59 1018.43 1018.30 1018.23 1018.21 1018.21 1018.23 1018.24 1018.23 1018.22 1018.23 1018.30 1018.46 1018.72 1019.10 1019.58 1020.13 1020.73 1021.32 1021.88 1022.37 1022.76 1023.06
1012.37 1013.46 1014.52 1015.41 1016.06 1016.44 1016.59 1016.61 1016.59 1016.63 1016.79 1017.09 1017.50 1017.96 1018.43 1018.81 1019.08 1019.21 1019.21 1019.11 1018.97 1018.82 1018.70 1018.62 1018.58 1018.56 1018.56 1018.54 1018.52 1018.49 1018.49 1018.54 1018.66 1018.89 1019.22 1019.65 1020.15 1020.70 1021.27 1021.82 1022.33 1022.77 1023.14
1012.41 1013.47 1014.53 1015.42 1016.09 1016.50 1016.69 1016.74 1016.75 1016.81 1016.97 1017.26 1017.66 1018.13 1018.60 1019.00 1019.29 1019.45 1019.49 1019.44 1019.33 1019.20 1019.08 1019.00 1018.95 1018.92 1018.90 1018.88 1018.86 1018.83 1018.82 1018.86 1018.96 1019.14 1019.42 1019.78 1020.21 1020.69 1021.20 1021.71 1022.21 1022.67 1023.09
1012.51 1013.53 1014.54 1015.41 1016.07 1016.50 1016.73 1016.83 1016.88 1016.98 1017.17 1017.47 1017.88 1018.34 1018.80 1019.20 1019.51 1019.69 1019.76 1019.73 1019.65 1019.54 1019.44 1019.36 1019.31 1019.29 1019.27 1019.26 1019.23 1019.22 1019.21 1019.24 1019.32 1019.46 1019.68 1019.96 1020.31 1020.72 1021.16 1021.62 1022.09 1022.55 1022.99
1012.61 1013.56 1014.50 1015.33 1015.97 1016.42 1016.69 1016.85 1016.98 1017.13 1017.37 1017.70 1018.11 1018.57 1019.02 1019.41 1019.71 1019.90 1019.98 1019.98 1019.92 1019.84 1019.76 1019.70 1019.67 1019.65 1019.65 1019.65 1019.65 1019.64 1019.65 1019.68 1019.74 1019.85 1020.01 1020.23 1020.50 1020.82 1021.18 1021.59 1022.02 1022.47 1022.92
1012.63 1013.51 1014.38 1015.15 1015.77 1016.23 1016.56 1016.79 1017.00 1017.24 1017.54 1017.91 1018.34 1018.79 1019.23 1019.60 1019.89 1020.07 1020.16 1020.18 1020.15 1020.10 1020.05 1020.02 1020.02 1020.03 1020.05 1020.07 1020.09 1020.10 1020.12 1020.15 1020.20 1020.29 1020.41 1020.57 1020.77 1021.02 1021.32 1021.66 1022.04 1022.46 1022.91
1012.54 1013.34 1014.14 1014.86 1015.46 1015.94 1016.32 1016.64 1016.95 1017.28 1017.66 1018.08 1018.53 1018.98 1019.40 1019.75 1020.01 1020.19 1020.29 1020.33 1020.34 1020.33 1020.33 1020.34 1020.37 1020.42 1020.46 1020.51 1020.55 1020.59 1020.62 1020.66 1020.70 1020.77 1020.86 1020.98 1021.13 1021.32 1021.55 1021.83 1022.16 1022.53 1022.94
1012.31 1013.05 1013.78 1014.45 1015.03 1015.54 1015.99 1016.41 1016.82 1017.25 1017.70 1018.18 1018.65 1019.10 1019.50 1019.83 1020.08 1020.26 1020.37 1020.44 1020.49 1020.54 1020.59 1020.66 1020.74 1020.82 1020.90 1020.97 1021.03 1021.08 1021.13 1021.17 1021.21 1021.27 1021.34 1021.43 1021.54 1021.68 1021.85 1022.07 1022.33 1022.65 1023.01
1011.96 1012.64 1013.31 1013.95 1014.53 1015.08 1015.59 1016.10 1016.61 1017.14 1017.67 1018.19 1018.69 1019.14 1019.53 1019.85 1020.09 1020.27 1020.41 1020.53 1020.63 1020.74 1020.86 1020.99 1021.12 1021.24 1021.35 1021.44 1021.51 1021.56 1021.61 1021.65 1021.70 1021.75 1021.81 1021.88 1021.96 1022.06 1022.18 1022.33 1022.53 1022.77 1023.06
1011.51 1012.15 1012.79 1013.40 1014.00 1014.58 1015.17 1015.76 1016.36 1016.97 1017.57 1018.14 1018.65 1019.11 1019.49 1019.80 1020.05 1020.25 1020.42 1020.59 1020.76 1020.94 1021.13 1021.31 1021.49 1021.64 1021.77 1021.86 1021.94 1021.99 1022.03 1022.07 1022.11 1022.16 1022.22 1022.27 1022.34 1022.40 1022.48 1022.58 1022.71 1022.87 1023.07
1011.00 1011.62 1012.24 1012.86 1013.48 1014.11 1014.76 1015.42 1016.10 1016.77 1017.42 1018.02 1018.55 1019.01 1019.39 1019.70 1019.96 1020.19 1020.41 1020.64 1020.87 1021.12 1021.38 1021.61 1021.82 1022.00 1022.13 1022.22 1022.28 1022.32 1022.35 1022.38 1022.42 1022.48 1022.53 1022.59 1022.64 1022.69 1022.74 1022.79 1022.85 1022.93 1023.05
1010.46 1011.09 1011.72 1012.36 1013.01 1013.69 1014.40 1015.12 1015.85 1016.57 1017.24 1017.86 1018.39 1018.85 1019.23 1019.55 1019.83 1020.10 1020.37 1020.66 1020.96 1021.27 1021.57 1021.85 1022.08 1022.26 1022.39 1022.46 1022.51 1022.53 1022.54 1022.57 1022.61 1022.67 1022.74 1022.81 1022.86 1022.91 1022.94 1022.96 1022.97 1022.98 1023.02
1009.94 1010.59 1011.26 1011.93 1012.63 1013.35 1014.10 1014.87 1015.63 1016.37 1017.05 1017.67 1018.20 1018.65 1019.03 1019.37 1019.67 1019.98 1020.29 1020.63 1020.98 1021.34 1021.67 1021.97 1022.21 1022.39 1022.50 1022.56 1022.58 1022.58 1022.59 1022.62 1022.67 1022.74 1022.84 1022.93 1023.01 1023.07 1023.10 1023.10 1023.08 1023.05 1023.03
1009.46 1010.16 1010.86 1011.59 1012.33 1013.09 1013.87 1014.66 1015.43 1016.17 1016.85 1017.45 1017.97 1018.41 1018.80 1019.14 1019.47 1019.80 1020.16 1020.53 1020.92 1021.30 1021.66 1021.96 1022.20 1022.36 1022.46 1022.50 1022.51 1022.51 1022.52 1022.56 1022.63 1022.73 1022.86 1022.99 1023.10 1023.19 1023.23 1023.24 1023.22 1023.17 1023.11
1009.05 1009.79 1010.55 1011.31 1012.09 1012.88 1013.68 1014.47 1015.24 1015.96 1016.62 1017.20 1017.70 1018.14 1018.52 1018.87 1019.22 1019.57 1019.95 1020.34 1020.74 1021.13 1021.49 1021.79 1022.02 1022.17 1022.26 1022.29 1022.30 1022.31 1022.34 1022.41 1022.52 1022.66 1022.83 1023.00 1023.16 1023.28 1023.35 1023.38 1023.37 1023.32 1023.25
1008.73 1009.50 1010.29 1011.08 1011.88 1012.69 1013.49 1014.27 1015.02 1015.72 1016.35 1016.91 1017.40 1017.82 1018.21 1018.56 1018.91 1019.28 1019.66 1020.06 1020.45 1020.83 1021.18 1021.46 1021.67 1021.82 1021.91 1021.96 1021.99 1022.02 1022.09 1022.20 1022.35 1022.54 1022.76 1022.97 1023.17 1023.33 1023.43 1023.49 1023.49 1023.46 1023.40
1008.50 1009.28 1010.08 1010.88 1011.68 1012.48 1013.27 1014.03 1014.76 1015.43 1016.04 1016.58 1017.05 1017.47 1017.85 1018.21 1018.56 1018.92 1019.30 1019.68 1020.05 1020.41 1020.73 1020.99 1021.20 1021.34 1021.45 1021.52 1021.59 1021.67 1021.79 1021.95 1022.15 1022.39 1022.64 1022.89 1023.11 1023.30 1023.42 1023.50 1023.52 1023.50 1023.46
1008.37 1009.13 1009.90 1010.68 1011.46 1012.23 1013.00 1013.74 1014.43 1015.08 1015.67 1016.20 1016.66 1017.08 1017.46 1017.82 1018.16 1018.51 1018.87 1019.22 1019.56 1019.88 1020.17 1020.42 1020.62 1020.78 1020.90 1021.02 1021.13 1021.27 1021.45 1021.66 1021.91 1022.18 1022.45 1022.71 1022.95 1023.13 1023.26 1023.34 1023.37 1023.37 1023.34
1008.34 1009.03 1009.74 1010.47 1011.21 1011.94 1012.67 1013.37 1014.04 1014.67 1015.25 1015.77 1016.24 1016.66 1017.04 1017.40 1017.74 1018.07 1018.39 1018.71 1019.01 1019.29 1019.55 1019.77 1019.97 1020.14 1020.30 1020.46 1020.63 1020.82 1021.05 1021.31 1021.58 1021.87 1022.15 1022.40 1022.61 1022.78 1022.89 1022.96 1022.98 1022.98 1022.96
1008.39 1008.98 1009.61 1010.26 1010.94 1011.61 1012.29 1012.96 1013.61 1014.22 1014.79 1015.31 1015.79 1016.22 1016.61 1016.96 1017.29 1017.59 1017.89 1018.16 1018.42 1018.66 1018.88 1019.08 1019.27 1019.45 1019.64 1019.84 1020.06 1020.31 1020.57 1020.86 1021.15 1021.43 1021.69 1021.91 1022.08 1022.20 1022.28 1022.31 1022.31 1022.30 1022.29
Thickness
5804 5803 5802 5800 5797 5794 5791 5789 5787 5785 5783 5779 5776 5773 5771 5771 5771 5771 5770 5768 5766 5765 5762 5760 5758 5756 5754 5752 5750 5748 5746 5744 5744 5740 5737 5738 5739 5738 5737 5737 5735 5734 5732
5802 5802 5801 5800 5798 5795 5792 5790 5789 5787 5785 5782 5779 5777 5774 5772 5771 5770 5769 5768 5766 5764 5762 5759 5757 5755 5753 5751 5749 5747 5744 5743 5743 5738 5732 5727 5728 5731 5735 5733 5732 5732 5731
5804 5803 5802 5801 5800 5797 5795 5794 5791 5789 5787 5785 5781 5778 5774 5772 5769 5768 5767 5767 5766 5764 5761 5759 5757 5755 5753 5750 5749 5748 5745 5741 5741 5741 5734 5725 5721 5724 5728 5729 5730 5729 5728
5810 5805 5804 5803 5802 5801 5800 5796 5793 5791 5789 5786 5782 5777 5772 5768 5768 5768 5767 5766 5765 5763 5762 5759 5757 5755 5753 5750 5749 5749 5747 5743 5739 5739 5738 5735 5731 5723 5719 5722 5725 5725 5725
5814 5810 5809 5807 5807 5805 5802 5798 5795 5792 5790 5788 5784 5779 5774 5772 5770 5769 5767 5765 5765 5763 5762 5759 5757 5754 5752 5750 5749 5747 5746 5744 5740 5737 5735 5733 5731 5728 5720 5715 5717 5719 5720
5819 5816 5814 5811 5808 5806 5803 5800 5796 5792 5791 5788 5784 5780 5776 5772 5769 5767 5765 5763 5763 5762 5761 5759 5756 5754 5752 5750 5748 5746 5745 5743 5741 5738 5736 5732 5729 5725 5722 5716 5714 5713 5714
5820 5816 5813 5810 5807 5805 5803 5800 5796 5792 5790 5788 5785 5782 5778 5775 5771 5768 5765 5763 5760 5759 5758 5758 5755 5753 5751 5749 5747 5745 5743 5741 5739 5736 5734 5733 5731 5729 5725 5719 5713 5710 5710
5822 5819 5817 5814 5811 5807 5804 5800 5796 5793 5791 5788 5785 5783 5780 5777 5773 5771 5767 5764 5761 5759 5758 5756 5754 5752 5750 5748 5746 5743 5741 5739 5737 5735 5733 5731 5730 5728 5725 5720 5714 5707 5704
5823 5820 5818 5815 5812 5809 5806 5802 5797 5794 5791 5789 5786 5783 5780 5777 5774 5771 5768 5765 5762 5760 5757 5755 5752 5750 5748 5746 5744 5741 5739 5737 5734 5732 5730 5728 5727 5725 5723 5721 5717 5709 5701
5821 5820 5818 5816 5813 5811 5808 5804 5799 5795 5792 5790 5786 5783 5780 5777 5774 5770 5766 5764 5762 5759 5756 5753 5750 5748 5745 5744 5741 5738 5736 5734 5731 5729 5727 5725 5723 5722 5720 5717 5715 5711 5705
5819 5818 5817 5816 5813 5810 5806 5802 5798 5794 5791 5788 5785 5782 5779 5776 5773 5769 5766 5763 5760 5757 5754 5751 5748 5745 5743 5740 5738 5735 5733 5730 5727 5726 5724 5721 5720 5718 5716 5713 5710 5707 5703
5820 5818 5815 5812 5809 5805 5803 5800 5796 5793 5790 5788 5784 5780 5777 5773 5770 5767 5764 5761 5758 5755 5752 5749 5745 5742 5740 5737 5734 5731 5729 5725 5722 5720 5719 5717 5716 5713 5710 5708 5705 5702 5699
5815 5813 5811 5807 5805 5803 5800 5798 5795 5792 5789 5785 5780 5776 5773 5769 5766 5764 5762 5759 5755 5752 5749 5746 5742 5739 5736 5733 5731 5728 5724 5721 5719 5717 5715 5713 5711 5708 5705 5702 5699 5697 5695
5810 5808 5805 5803 5802 5801 5798 5795 5792 5789 5785 5781 5777 5772 5769 5766 5763 5761 5758 5755 5752 5748 5745 5742 5738 5735 5732 5730 5727 5723 5720 5717 5715 5713 5711 5709 5707 5704 5701 5697 5694 5691 5687
5804 5804 5801 5799 5798 5796 5794 5791 5788 5784 5781 5775 5771 5768 5766 5763 5759 5757 5754 5751 5748 5745 5741 5737 5734 5731 5728 5725 5722 5719 5716 5712 5709 5708 5706 5705 5703 5700 5697 5693 5688 5685 5680
5802 5801 5799 5796 5793 5792 5789 5786 5782 5779 5776 5770 5765 5764 5761 5758 5754 5751 5749 5745 5742 5739 5735 5731 5728 5725 5722 5720 5717 5714 5711 5707 5704 5701 5700 5699 5697 5695 5692 5689 5685 5682 5677
5799 5797 5795 5792 5790 5789 5787 5782 5778 5775 5770 5765 5761 5758 5755 5752 5749 5746 5742 5739 5736 5732 5729 5725 5722 5718 5716 5714 5711 5708 5705 5701 5698 5696 5693 5692 5691 5688 5685 5683 5679 5676 5673
5796 5793 5792 5789 5787 5786 5783 5778 5774 5769 5764 5759 5756 5753 5750 5747 5744 5741 5737 5733 5730 5726 5723 5720 5716 5713 5710 5708 5705 5702 5699 5696 5693 5690 5688 5686 5684 5682 5679 5676 5672 5669 5666
5794 5791 5789 5786 5783 5780 5777 5773 5767 5763 5758 5753 5750 5749 5746 5742 5739 5735 5731 5728 5723 5720 5717 5714 5710 5707 5704 5702 5699 5696 5692 5689 5687 5685 5683 5681 5678 5676 5673 5669 5665 5661 5659
5787 5785 5784 5781 5776 5773 5771 5765 5759 5755 5751 5749 5747 5745 5742 5738 5733 5729 5726 5722 5718 5714 5711 5707 5704 5702 5699 5696 5694 5691 5687 5683 5680 5678 5677 5675 5672 5669 5666 5663 5659 5654 5652
5778 5778 5775 5771 5767 5766 5763 5757 5753 5749 5747 5745 5742 5738 5735 5732 5728 5724 5720 5716 5712 5708 5704 5700 5697 5695 5693 5690 5688 5685 5682 5678 5674 5672 5669 5668 5666 5663 5659 5656 5653 5650 5647
5768 5767 5763 5760 5759 5758 5755 5749 5745 5744 5742 5739 5735 5731 5728 5726 5723 5718 5713 5709 5705 5700 5696 5692 5689 5687 5685 5683 5681 5679 5676 5673 5669 5665 5663 5661 5659 5656 5653 5649 5647 5644 5641
5758 5756 5752 5750 5749 5749 5747 5742 5739 5737 5735 5730 5726 5723 5720 5718 5715 5711 5706 5702 5698 5694 5690 5686 5682 5679 5677 5676 5674 5672 5670 5667 5663 5660 5657 5654 5652 5649 5645 5642 5640 5637 5633
5748 5747 5744 5740 5738 5738 5738 5735 5732 5730 5726 5721 5717 5715 5712 5709 5707 5704 5700 5696 5692 5688 5684 5681 5677 5673 5670 5667 5666 5664 5661 5659 5655 5652 5649 5646 5644 5641 5638 5635 5631 5629 5626
5739 5738 5736 5732 5730 5729 5728 5727 5725 5722 5717 5712 5709 5706 5704 5701 5698 5695 5692 5689 5686 5683 5680 5677 5673 5668 5664 5662 5660 5657 5654 5651 5648 5644 5640 5637 5634 5631 5628 5626 5623 5621 5618
5729 5728 5726 5724 5722 5721 5719 5717 5716 5713 5708 5703 5700 5698 5695 5692 5689 5686 5682 5680 5678 5676 5673 5671 5667 5664 5661 5658 5654 5651 5648 5645 5642 5636 5632 5629 5626 5623 5621 5618 5615 5613 5610